| time (UTC) | temp C | wind direction | speed KPH | gust KPH | rain 1hr cm | rain 24hr cm | rain mn cm | humidity % | barometer mb |
| 20260509043519 | 12 | 195 | 3.2 | 6.4 | 0.36 | 1.32 | 0.23 | 91 | 1009.6 |
| 20260509043051 | 12 | 0 | 1.6 | 8.0 | 0.36 | 1.30 | 0.20 | 91 | 1009.7 |
| 20260509042521 | 12 | 198 | 3.2 | 8.0 | 0.33 | 1.24 | 0.15 | 91 | 1009.7 |
| 20260509042021 | 12 | 183 | 3.2 | 6.4 | 0.33 | 1.22 | 0.13 | 91 | 1009.7 |
| 20260509041539 | 12 | 227 | 1.6 | 6.4 | 0.36 | 1.19 | 0.10 | 91 | 1009.7 |
| 20260509041021 | 12 | 213 | 3.2 | 6.4 | 0.36 | 1.17 | 0.08 | 91 | 1009.7 |
| 20260509040523 | 12 | 207 | 1.6 | 6.4 | 0.36 | 1.14 | 0.05 | 91 | 1009.9 |
| 20260509040042 | 12 | 213 | 1.6 | 6.4 | 0.36 | 1.12 | 0.03 | 91 | 1009.8 |
| 20260509035519 | 12 | 219 | 1.6 | 6.4 | 0.33 | 1.07 | 1.07 | 91 | 1009.9 |
| 20260509035021 | 12 | 246 | 1.6 | 4.8 | 0.30 | 1.04 | 1.04 | 91 | 1010.0 |
| 20260509034540 | 12 | 252 | 1.6 | 4.8 | 0.30 | 1.02 | 1.02 | 91 | 1010.1 |
| 20260509034020 | 12 | 252 | 1.6 | 4.8 | 0.28 | 0.99 | 0.99 | 91 | 1010.1 |
| 20260509033521 | 12 | 253 | 1.6 | 6.4 | 0.25 | 0.97 | 0.97 | 91 | 1010.1 |
| 20260509033041 | 12 | 252 | 0.0 | 6.4 | 0.25 | 0.94 | 0.94 | 91 | 1010.2 |
| 20260509032521 | 12 | 250 | 1.6 | 6.4 | 0.23 | 0.91 | 0.91 | 91 | 1010.2 |
| 20260509032021 | 12 | 253 | 1.6 | 6.4 | 0.23 | 0.89 | 0.89 | 91 | 1010.0 |
| 20260509031554 | 12 | 248 | 3.2 | 6.4 | 0.18 | 0.84 | 0.84 | 90 | 1010.2 |
| 20260509031020 | 12 | 254 | 1.6 | 6.4 | 0.18 | 0.81 | 0.81 | 90 | 1010.3 |
| 20260509030521 | 12 | 0 | 1.6 | 6.4 | 0.15 | 0.79 | 0.79 | 90 | 1010.4 |
| 20260509030058 | 12 | 252 | 1.6 | 6.4 | 0.15 | 0.76 | 0.76 | 90 | 1010.4 |
| 20260509025521 | 12 | 255 | 1.6 | 6.4 | 0.15 | 0.74 | 0.74 | 90 | 1010.4 |
| 20260509025017 | 12 | 254 | 1.6 | 4.8 | 0.18 | 0.74 | 0.74 | 90 | 1010.4 |
| 20260509024541 | 12 | 247 | 1.6 | 4.8 | 0.15 | 0.71 | 0.71 | 90 | 1010.4 |
| 20260509024018 | 12 | 254 | 1.6 | 4.8 | 0.18 | 0.71 | 0.71 | 90 | 1010.4 |
| 20260509023520 | 12 | 260 | 1.6 | 4.8 | 0.20 | 0.71 | 0.71 | 90 | 1010.4 |
| 20260509023037 | 12 | 261 | 0.0 | 4.8 | 0.20 | 0.69 | 0.69 | 90 | 1010.4 |
| 20260509022520 | 12 | 261 | 1.6 | 4.8 | 0.23 | 0.66 | 0.66 | 90 | 1010.6 |
| 20260509022020 | 12 | 0 | 1.6 | 4.8 | 0.25 | 0.66 | 0.66 | 90 | 1010.5 |
| 20260509021539 | 12 | 255 | 1.6 | 8.0 | 0.28 | 0.66 | 0.66 | 90 | 1010.5 |
| 20260509021019 | 12 | 243 | 3.2 | 8.0 | 0.28 | 0.64 | 0.64 | 90 | 1010.3 |
| 20260509020520 | 12 | 261 | 3.2 | 8.0 | 0.30 | 0.64 | 0.64 | 90 | 1010.4 |
| 20260509020041 | 12 | 252 | 3.2 | 6.4 | 0.30 | 0.61 | 0.61 | 90 | 1010.3 |
| 20260509015520 | 12 | 221 | 1.6 | 8.0 | 0.30 | 0.58 | 0.58 | 90 | 1010.3 |
| 20260509015021 | 12 | 270 | 3.2 | 8.0 | 0.30 | 0.56 | 0.56 | 89 | 1010.5 |
| 20260509014538 | 12 | 242 | 3.2 | 8.0 | 0.33 | 0.56 | 0.56 | 89 | 1010.5 |
| 20260509014020 | 12 | 240 | 3.2 | 11.3 | 0.33 | 0.51 | 0.51 | 89 | 1010.5 |
| 20260509013523 | 12 | 259 | 4.8 | 11.3 | 0.30 | 0.48 | 0.48 | 89 | 1010.5 |
| 20260509013038 | 12 | 258 | 3.2 | 9.7 | 0.30 | 0.46 | 0.46 | 89 | 1010.4 |
| 20260509012521 | 12 | 253 | 3.2 | 6.4 | 0.28 | 0.43 | 0.43 | 89 | 1010.1 |
| 20260509012021 | 12 | 263 | 1.6 | 8.0 | 0.28 | 0.41 | 0.41 | 89 | 1010.1 |
| 20260509011535 | 12 | 0 | 1.6 | 9.7 | 0.25 | 0.38 | 0.38 | 89 | 1010.0 |
| 20260509011022 | 12 | 276 | 3.2 | 9.7 | 0.23 | 0.36 | 0.36 | 88 | 1009.9 |
| 20260509010519 | 12 | 292 | 1.6 | 9.7 | 0.20 | 0.30 | 0.30 | 88 | 1009.9 |
| 20260509010040 | 12 | 292 | 1.6 | 6.4 | 0.20 | 0.30 | 0.30 | 88 | 1009.9 |
| 20260509005521 | 12 | 293 | 1.6 | 9.7 | 0.18 | 0.28 | 0.28 | 88 | 1009.9 |
| 20260509005019 | 12 | 290 | 1.6 | 9.7 | 0.15 | 0.25 | 0.25 | 88 | 1009.7 |
| 20260509004549 | 12 | 315 | 1.6 | 4.8 | 0.10 | 0.20 | 0.20 | 88 | 1009.9 |
| 20260509004023 | 12 | 321 | 1.6 | 6.4 | 0.08 | 0.18 | 0.18 | 87 | 1009.9 |
| 20260509003521 | 12 | 346 | 1.6 | 6.4 | 0.10 | 0.18 | 0.18 | 87 | 1009.5 |
| 20260509003049 | 12 | 339 | 1.6 | 8.0 | 0.08 | 0.15 | 0.15 | 87 | 1009.5 |
| 20260509002517 | 12 | 340 | 3.2 | 8.0 | 0.10 | 0.15 | 0.15 | 86 | 1009.4 |
| 20260509002020 | 12 | 327 | 3.2 | 8.0 | 0.08 | 0.13 | 0.13 | 86 | 1009.3 |
| 20260509001539 | 12 | 338 | 1.6 | 6.4 | 0.10 | 0.13 | 0.13 | 86 | 1009.6 |
| 20260509001020 | 12 | 332 | 1.6 | 6.4 | 0.10 | 0.13 | 0.13 | 86 | 1009.8 |
| 20260509000519 | 12 | 332 | 1.6 | 6.4 | 0.10 | 0.10 | 0.10 | 85 | 1009.8 |
| 20260509000035 | 12 | 327 | 1.6 | 6.4 | 0.10 | 0.10 | 0.10 | 85 | 1009.7 |
| 20260508235522 | 13 | 326 | 1.6 | 6.4 | 0.10 | 0.10 | 0.10 | 84 | 1009.6 |
| 20260508235025 | 13 | 299 | 1.6 | 4.8 | 0.10 | 0.10 | 0.10 | 84 | 1009.6 |
| 20260508234542 | 13 | 288 | 0.0 | 3.2 | 0.10 | 0.10 | 0.10 | 83 | 1009.7 |
| 20260508234020 | 13 | 288 | 0.0 | 3.2 | 0.10 | 0.10 | 0.10 | 83 | 1009.7 |
| 20260508233523 | 13 | 288 | 0.0 | 3.2 | 0.08 | 0.08 | 0.08 | 82 | 1009.8 |
| 20260508233041 | 13 | 288 | 0.0 | 4.8 | 0.08 | 0.08 | 0.08 | 82 | 1009.7 |
| 20260508232520 | 13 | 288 | 1.6 | 4.8 | 0.05 | 0.05 | 0.05 | 81 | 1009.7 |
| 20260508232020 | 13 | 288 | 1.6 | 6.4 | 0.05 | 0.05 | 0.05 | 79 | 1009.8 |
| 20260508231536 | 13 | 302 | 1.6 | 6.4 | 0.03 | 0.03 | 0.03 | 78 | 1009.8 |
| 20260508231021 | 14 | 298 | 3.2 | 6.4 | 0.00 | 0.00 | 0.00 | 83 | 1009.8 |
| 20260508230520 | 14 | 302 | 3.2 | 11.3 | 0.00 | 0.00 | 0.00 | 76 | 1009.8 |
| 20260508230035 | 14 | 303 | 3.2 | 11.3 | 0.00 | 0.00 | 0.00 | 75 | 1009.6 |
| 20260508225519 | 15 | 303 | 3.2 | 6.4 | 0.00 | 0.00 | 0.00 | 74 | 1009.6 |
| 20260508225021 | 15 | 299 | 3.2 | 6.4 | 0.00 | 0.00 | 0.00 | 74 | 1009.5 |
| 20260508224548 | 15 | 303 | 1.6 | 6.4 | 0.00 | 0.00 | 0.00 | 73 | 1009.4 |
| 20260508224023 | 15 | 290 | 3.2 | 6.4 | 0.00 | 0.00 | 0.00 | 72 | 1009.5 |
| 20260508223520 | 15 | 297 | 3.2 | 6.4 | 0.00 | 0.00 | 0.00 | 76 | 1009.5 |
| 20260508223049 | 16 | 293 | 3.2 | 9.7 | 0.00 | 0.00 | 0.00 | 69 | 1009.4 |
| 20260508222520 | 16 | 286 | 3.2 | 9.7 | 0.00 | 0.00 | 0.00 | 68 | 1009.4 |
| 20260508222020 | 16 | 277 | 1.6 | 9.7 | 0.00 | 0.00 | 0.00 | 67 | 1009.2 |
| 20260508221539 | 16 | 261 | 3.2 | 9.7 | 0.00 | 0.00 | 0.00 | 66 | 1009.2 |
| 20260508221023 | 16 | 279 | 3.2 | 14.5 | 0.00 | 0.00 | 0.00 | 64 | 1009.3 |
| 20260508220520 | 16 | 257 | 1.6 | 16.1 | 0.00 | 0.00 | 0.00 | 62 | 1009.2 |
| 20260508220048 | 17 | 258 | 6.4 | 19.3 | 0.00 | 0.00 | 0.00 | 60 | 1009.3 |
| 20260508215519 | 17 | 252 | 8.0 | 19.3 | 0.00 | 0.00 | 0.00 | 60 | 1009.1 |
| 20260508215020 | 17 | 244 | 8.0 | 16.1 | 0.00 | 0.00 | 0.00 | 59 | 1009.0 |
| 20260508214535 | 17 | 208 | 3.2 | 16.1 | 0.00 | 0.00 | 0.00 | 60 | 1009.1 |
| 20260508214017 | 17 | 216 | 4.8 | 16.1 | 0.00 | 0.00 | 0.00 | 58 | 1009.0 |
| 20260508213520 | 17 | 240 | 1.6 | 6.4 | 0.00 | 0.00 | 0.00 | 59 | 1009.1 |
| 20260508213035 | 17 | 250 | 3.2 | 6.4 | 0.00 | 0.00 | 0.00 | 60 | 1009.1 |
| 20260508212520 | 17 | 232 | 1.6 | 6.4 | 0.00 | 0.00 | 0.00 | 62 | 1009.1 |
| 20260508212022 | 17 | 199 | 1.6 | 6.4 | 0.00 | 0.00 | 0.00 | 57 | 1009.1 |
| 20260508211534 | 17 | 237 | 1.6 | 6.4 | 0.00 | 0.00 | 0.00 | 56 | 1009.1 |
| 20260508211020 | 17 | 224 | 1.6 | 6.4 | 0.00 | 0.00 | 0.00 | 56 | 1009.2 |
| 20260508210520 | 17 | 240 | 0.0 | 6.4 | 0.00 | 0.00 | 0.00 | 56 | 1009.2 |
| 20260508210044 | 17 | 0 | 1.6 | 8.0 | 0.00 | 0.00 | 0.00 | 55 | 1009.2 |
| 20260508205520 | 17 | 223 | 1.6 | 9.7 | 0.00 | 0.00 | 0.00 | 55 | 1009.2 |
| 20260508205020 | 18 | 236 | 4.8 | 9.7 | 0.00 | 0.00 | 0.00 | 60 | 1009.3 |
| 20260508204541 | 18 | 255 | 3.2 | 8.0 | 0.00 | 0.00 | 0.00 | 56 | 1009.2 |
| 20260508204020 | 18 | 245 | 3.2 | 8.0 | 0.00 | 0.00 | 0.00 | 55 | 1009.2 |
| 20260508203520 | 18 | 241 | 3.2 | 8.0 | 0.00 | 0.00 | 0.00 | 54 | 1009.3 |
| 20260508203041 | 18 | 229 | 4.8 | 11.3 | 0.00 | 0.00 | 0.00 | 57 | 1009.4 |
| 20260508202521 | 18 | 232 | 3.2 | 11.3 | 0.00 | 0.00 | 0.00 | 56 | 1009.4 |
| 20260508202023 | 18 | 211 | 4.8 | 9.7 | 0.00 | 0.00 | 0.00 | 60 | 1009.6 |
| 20260508201536 | 18 | 229 | 3.2 | 11.3 | 0.00 | 0.00 | 0.00 | 56 | 1009.7 |
| 20260508201022 | 18 | 235 | 4.8 | 12.9 | 0.00 | 0.00 | 0.00 | 55 | 1009.8 |
| 20260508200519 | 18 | 228 | 3.2 | 12.9 | 0.00 | 0.00 | 0.00 | 54 | 1009.8 |
| 20260508200035 | 18 | 228 | 4.8 | 12.9 | 0.00 | 0.00 | 0.00 | 53 | 1009.8 |
| 20260508195520 | 18 | 257 | 3.2 | 9.7 | 0.00 | 0.00 | 0.00 | 54 | 1010.2 |
| 20260508195021 | 18 | 235 | 3.2 | 11.3 | 0.00 | 0.00 | 0.00 | 53 | 1010.3 |
| 20260508194541 | 18 | 239 | 4.8 | 16.1 | 0.00 | 0.00 | 0.00 | 53 | 1010.4 |
| 20260508194019 | 18 | 232 | 6.4 | 19.3 | 0.00 | 0.00 | 0.00 | 52 | 1010.3 |
| 20260508193519 | 18 | 221 | 6.4 | 19.3 | 0.00 | 0.00 | 0.00 | 50 | 1010.3 |
| 20260508193038 | 18 | 223 | 4.8 | 16.1 | 0.00 | 0.00 | 0.00 | 52 | 1010.5 |
| 20260508192520 | 18 | 173 | 6.4 | 16.1 | 0.00 | 0.00 | 0.00 | 52 | 1010.7 |
| 20260508192020 | 18 | 226 | 4.8 | 17.7 | 0.00 | 0.00 | 0.00 | 52 | 1010.7 |
| 20260508191543 | 18 | 228 | 8.0 | 17.7 | 0.00 | 0.00 | 0.00 | 51 | 1010.7 |
| 20260508191020 | 18 | 256 | 8.0 | 16.1 | 0.00 | 0.00 | 0.00 | 57 | 1010.8 |
| 20260508190520 | 18 | 239 | 6.4 | 16.1 | 0.00 | 0.00 | 0.00 | 53 | 1010.8 |
| 20260508190038 | 18 | 238 | 6.4 | 16.1 | 0.00 | 0.00 | 0.00 | 54 | 1010.9 |
| 20260508185520 | 18 | 219 | 6.4 | 16.1 | 0.00 | 0.00 | 0.00 | 53 | 1010.9 |
| 20260508185021 | 18 | 234 | 8.0 | 17.7 | 0.00 | 0.00 | 0.00 | 52 | 1011.1 |
| 20260508184535 | 18 | 229 | 8.0 | 17.7 | 0.00 | 0.00 | 0.00 | 52 | 1011.1 |
| 20260508184019 | 18 | 239 | 4.8 | 17.7 | 0.00 | 0.00 | 0.00 | 53 | 1011.1 |
| 20260508183519 | 18 | 253 | 8.0 | 19.3 | 0.00 | 0.00 | 0.00 | 60 | 1011.1 |
| 20260508183043 | 18 | 232 | 6.4 | 19.3 | 0.00 | 0.00 | 0.00 | 53 | 1011.1 |
| 20260508182520 | 17 | 242 | 4.8 | 16.1 | 0.00 | 0.00 | 0.00 | 53 | 1011.1 |
| 20260508182019 | 17 | 243 | 4.8 | 17.7 | 0.00 | 0.00 | 0.00 | 56 | 1011.2 |
| 20260508181539 | 17 | 242 | 6.4 | 17.7 | 0.00 | 0.00 | 0.00 | 51 | 1011.2 |
| 20260508181021 | 18 | 232 | 9.7 | 29.0 | 0.00 | 0.00 | 0.00 | 51 | 1011.2 |
| 20260508180522 | 18 | 229 | 9.7 | 30.6 | 0.00 | 0.00 | 0.00 | 52 | 1011.3 |
| 20260508180040 | 18 | 214 | 12.9 | 30.6 | 0.00 | 0.00 | 0.00 | 48 | 1011.4 |
| 20260508175520 | 18 | 246 | 9.7 | 24.1 | 0.00 | 0.00 | 0.00 | 52 | 1011.3 |
| 20260508175020 | 18 | 217 | 8.0 | 24.1 | 0.00 | 0.00 | 0.00 | 50 | 1011.2 |
| 20260508174541 | 19 | 205 | 8.0 | 24.1 | 0.00 | 0.00 | 0.00 | 51 | 1011.4 |
| 20260508174023 | 19 | 196 | 9.7 | 24.1 | 0.00 | 0.00 | 0.00 | 51 | 1011.5 |
| 20260508173520 | 18 | 246 | 6.4 | 29.0 | 0.00 | 0.00 | 0.00 | 55 | 1011.6 |
| 20260508173042 | 18 | 227 | 9.7 | 29.0 | 0.00 | 0.00 | 0.00 | 55 | 1011.6 |
| 20260508172521 | 18 | 182 | 12.9 | 27.4 | 0.00 | 0.00 | 0.00 | 56 | 1011.6 |
| 20260508172022 | 18 | 223 | 11.3 | 27.4 | 0.00 | 0.00 | 0.00 | 53 | 1011.8 |
| 20260508171540 | 17 | 215 | 9.7 | 24.1 | 0.00 | 0.00 | 0.00 | 53 | 1011.9 |
| 20260508171020 | 17 | 227 | 8.0 | 16.1 | 0.00 | 0.00 | 0.00 | 56 | 1012.2 |
| 20260508170519 | 17 | 195 | 8.0 | 27.4 | 0.00 | 0.00 | 0.00 | 55 | 1012.4 |
| 20260508170039 | 17 | 234 | 8.0 | 27.4 | 0.00 | 0.00 | 0.00 | 54 | 1012.3 |
| 20260508165519 | 17 | 239 | 8.0 | 20.9 | 0.00 | 0.00 | 0.00 | 54 | 1012.5 |
| 20260508165025 | 17 | 212 | 8.0 | 20.9 | 0.00 | 0.00 | 0.00 | 60 | 1012.5 |
| 20260508164538 | 16 | 234 | 8.0 | 20.9 | 0.00 | 0.00 | 0.00 | 55 | 1012.7 |
| 20260508164020 | 16 | 219 | 6.4 | 19.3 | 0.00 | 0.00 | 0.00 | 56 | 1012.8 |
| 20260508163519 | 16 | 248 | 8.0 | 19.3 | 0.00 | 0.00 | 0.00 | 55 | 1012.8 |
| 20260508163038 | 16 | 185 | 8.0 | 29.0 | 0.00 | 0.00 | 0.00 | 55 | 1012.8 |
| 20260508162519 | 16 | 218 | 6.4 | 29.0 | 0.00 | 0.00 | 0.00 | 56 | 1012.8 |
| 20260508162019 | 16 | 184 | 6.4 | 17.7 | 0.00 | 0.00 | 0.00 | 60 | 1012.9 |
| 20260508161534 | 16 | 180 | 6.4 | 17.7 | 0.00 | 0.00 | 0.00 | 56 | 1013.0 |
| 20260508161020 | 16 | 234 | 8.0 | 16.1 | 0.00 | 0.00 | 0.00 | 55 | 1013.1 |
| 20260508160521 | 16 | 236 | 6.4 | 19.3 | 0.00 | 0.00 | 0.00 | 56 | 1013.1 |
| 20260508160040 | 16 | 223 | 6.4 | 19.3 | 0.00 | 0.00 | 0.00 | 56 | 1013.2 |
| 20260508155523 | 16 | 229 | 8.0 | 22.5 | 0.00 | 0.00 | 0.00 | 55 | 1013.3 |
| 20260508155021 | 17 | 195 | 8.0 | 22.5 | 0.00 | 0.00 | 0.00 | 54 | 1013.3 |
| 20260508154550 | 17 | 257 | 6.4 | 17.7 | 0.00 | 0.00 | 0.00 | 53 | 1013.2 |
| 20260508154020 | 18 | 190 | 6.4 | 16.1 | 0.00 | 0.00 | 0.00 | 53 | 1013.3 |
| 20260508153524 | 18 | 198 | 6.4 | 16.1 | 0.00 | 0.00 | 0.00 | 53 | 1013.4 |
| 20260508153041 | 18 | 250 | 8.0 | 16.1 | 0.00 | 0.00 | 0.00 | 54 | 1013.3 |
| 20260508152520 | 18 | 204 | 6.4 | 17.7 | 0.00 | 0.00 | 0.00 | 57 | 1013.3 |
| 20260508152020 | 17 | 242 | 9.7 | 19.3 | 0.00 | 0.00 | 0.00 | 55 | 1013.3 |
| 20260508151538 | 17 | 219 | 9.7 | 20.9 | 0.00 | 0.00 | 0.00 | 56 | 1013.3 |
| 20260508151022 | 17 | 232 | 11.3 | 20.9 | 0.00 | 0.00 | 0.00 | 61 | 1013.3 |
| 20260508150520 | 17 | 220 | 9.7 | 20.9 | 0.00 | 0.00 | 0.00 | 55 | 1013.2 |
| 20260508150051 | 17 | 215 | 9.7 | 20.9 | 0.00 | 0.00 | 0.00 | 56 | 1013.3 |
| 20260508145519 | 17 | 242 | 14.5 | 20.9 | 0.00 | 0.00 | 0.00 | 57 | 1013.4 |
| 20260508145018 | 16 | 220 | 8.0 | 20.9 | 0.00 | 0.00 | 0.00 | 58 | 1013.4 |
| 20260508144535 | 16 | 252 | 9.7 | 20.9 | 0.00 | 0.00 | 0.00 | 55 | 1013.5 |
| 20260508144019 | 16 | 248 | 8.0 | 17.7 | 0.00 | 0.00 | 0.00 | 58 | 1013.7 |
| 20260508143524 | 16 | 184 | 6.4 | 17.7 | 0.00 | 0.00 | 0.00 | 61 | 1013.7 |
| 20260508143052 | 16 | 222 | 6.4 | 24.1 | 0.00 | 0.00 | 0.00 | 56 | 1013.6 |
| 20260508142520 | 15 | 244 | 9.7 | 24.1 | 0.00 | 0.00 | 0.00 | 58 | 1013.7 |
| 20260508142020 | 15 | 235 | 8.0 | 20.9 | 0.00 | 0.00 | 0.00 | 57 | 1013.7 |
| 20260508141539 | 15 | 240 | 9.7 | 22.5 | 0.00 | 0.00 | 0.00 | 59 | 1013.7 |
| 20260508141021 | 15 | 228 | 12.9 | 22.5 | 0.00 | 0.00 | 0.00 | 58 | 1013.7 |
| 20260508140519 | 15 | 234 | 8.0 | 19.3 | 0.00 | 0.00 | 0.00 | 59 | 1013.7 |
| 20260508140047 | 14 | 234 | 6.4 | 19.3 | 0.00 | 0.00 | 0.00 | 64 | 1013.7 |
| 20260508135518 | 14 | 222 | 8.0 | 20.9 | 0.00 | 0.00 | 0.00 | 59 | 1013.8 |
| 20260508135021 | 14 | 242 | 8.0 | 20.9 | 0.00 | 0.00 | 0.00 | 59 | 1013.8 |
| 20260508134540 | 13 | 215 | 4.8 | 19.3 | 0.00 | 0.00 | 0.00 | 60 | 1013.8 |
| 20260508134019 | 13 | 237 | 8.0 | 19.3 | 0.00 | 0.00 | 0.00 | 60 | 1013.8 |
| 20260508133520 | 13 | 217 | 6.4 | 19.3 | 0.00 | 0.00 | 0.00 | 60 | 1013.8 |
| 20260508133032 | 13 | 188 | 8.0 | 19.3 | 0.00 | 0.00 | 0.00 | 65 | 1013.8 |
| 20260508132519 | 12 | 227 | 8.0 | 19.3 | 0.00 | 0.00 | 0.00 | 66 | 1013.9 |
| 20260508132020 | 12 | 252 | 4.8 | 16.1 | 0.00 | 0.00 | 0.00 | 63 | 1013.9 |
| 20260508131539 | 12 | 228 | 6.4 | 17.7 | 0.00 | 0.00 | 0.00 | 61 | 1013.9 |
| 20260508131020 | 12 | 234 | 8.0 | 17.7 | 0.00 | 0.00 | 0.00 | 62 | 1013.9 |
| 20260508130519 | 11 | 178 | 4.8 | 16.1 | 0.00 | 0.00 | 0.00 | 64 | 1013.9 |
| 20260508130039 | 11 | 228 | 6.4 | 17.7 | 0.00 | 0.00 | 0.00 | 63 | 1014.0 |
| 20260508125519 | 11 | 253 | 6.4 | 25.7 | 0.00 | 0.00 | 0.00 | 64 | 1014.0 |
| 20260508125020 | 11 | 239 | 6.4 | 25.7 | 0.00 | 0.00 | 0.00 | 64 | 1014.0 |
| 20260508124538 | 11 | 222 | 8.0 | 25.7 | 0.00 | 0.00 | 0.00 | 64 | 1014.0 |
| 20260508124019 | 11 | 218 | 4.8 | 17.7 | 0.00 | 0.00 | 0.00 | 65 | 1013.9 |
| 20260508123519 | 10 | 217 | 9.7 | 17.7 | 0.00 | 0.00 | 0.00 | 64 | 1013.9 |
| 20260508123043 | 10 | 198 | 4.8 | 16.1 | 0.00 | 0.00 | 0.00 | 65 | 1013.9 |
| 20260508122520 | 10 | 240 | 4.8 | 20.9 | 0.00 | 0.00 | 0.00 | 65 | 1013.9 |
| 20260508122018 | 10 | 221 | 3.2 | 20.9 | 0.00 | 0.00 | 0.00 | 71 | 1013.8 |
| 20260508121542 | 10 | 207 | 4.8 | 16.1 | 0.00 | 0.00 | 0.00 | 66 | 1013.8 |
| 20260508121019 | 10 | 222 | 3.2 | 17.7 | 0.00 | 0.00 | 0.00 | 66 | 1013.8 |
| 20260508120519 | 10 | 194 | 4.8 | 17.7 | 0.00 | 0.00 | 0.00 | 65 | 1013.7 |
| 20260508120043 | 10 | 169 | 4.8 | 14.5 | 0.00 | 0.00 | 0.00 | 66 | 1013.7 |
| 20260508115520 | 9 | 181 | 4.8 | 16.1 | 0.00 | 0.00 | 0.00 | 65 | 1013.7 |
| 20260508115019 | 9 | 203 | 4.8 | 16.1 | 0.00 | 0.00 | 0.00 | 66 | 1013.7 |
| 20260508114540 | 9 | 217 | 4.8 | 14.5 | 0.00 | 0.00 | 0.00 | 66 | 1013.7 |
| 20260508114019 | 9 | 224 | 6.4 | 12.9 | 0.00 | 0.00 | 0.00 | 66 | 1013.7 |
| 20260508113519 | 8 | 219 | 6.4 | 14.5 | 0.00 | 0.00 | 0.00 | 66 | 1013.7 |
| 20260508113039 | 8 | 188 | 6.4 | 17.7 | 0.00 | 0.00 | 0.00 | 67 | 1013.6 |
| 20260508112519 | 8 | 185 | 4.8 | 17.7 | 0.00 | 0.00 | 0.00 | 67 | 1013.6 |
| 20260508112019 | 8 | 205 | 4.8 | 12.9 | 0.00 | 0.00 | 0.00 | 67 | 1013.7 |
| 20260508111535 | 8 | 211 | 4.8 | 12.9 | 0.00 | 0.00 | 0.00 | 67 | 1013.5 |
| 20260508111019 | 8 | 197 | 4.8 | 17.7 | 0.00 | 0.00 | 0.00 | 67 | 1013.5 |
| 20260508110520 | 8 | 192 | 4.8 | 17.7 | 0.00 | 0.00 | 0.00 | 67 | 1013.5 |
| 20260508110039 | 8 | 216 | 4.8 | 11.3 | 0.00 | 0.00 | 0.00 | 68 | 1013.5 |
| 20260508105520 | 8 | 192 | 3.2 | 11.3 | 0.00 | 0.00 | 0.00 | 68 | 1013.4 |
| 20260508105019 | 8 | 200 | 3.2 | 11.3 | 0.00 | 0.00 | 0.00 | 68 | 1013.4 |
| 20260508104541 | 8 | 189 | 3.2 | 11.3 | 0.00 | 0.00 | 0.00 | 68 | 1013.3 |
| 20260508104020 | 8 | 229 | 3.2 | 9.7 | 0.00 | 0.00 | 0.00 | 68 | 1013.4 |
| 20260508103518 | 8 | 173 | 3.2 | 9.7 | 0.00 | 0.00 | 0.00 | 68 | 1013.3 |
| 20260508103048 | 8 | 224 | 1.6 | 8.0 | 0.00 | 0.00 | 0.00 | 68 | 1013.2 |
| 20260508102520 | 8 | 0 | 1.6 | 9.7 | 0.00 | 0.00 | 0.00 | 68 | 1013.2 |
| 20260508102018 | 8 | 202 | 1.6 | 9.7 | 0.00 | 0.00 | 0.00 | 68 | 1013.2 |
| 20260508101544 | 8 | 209 | 3.2 | 8.0 | 0.00 | 0.00 | 0.00 | 67 | 1013.2 |
| 20260508101019 | 8 | 181 | 3.2 | 8.0 | 0.00 | 0.00 | 0.00 | 67 | 1013.2 |
| 20260508100519 | 8 | 211 | 1.6 | 9.7 | 0.00 | 0.00 | 0.00 | 67 | 1013.2 |
| 20260508100038 | 8 | 189 | 3.2 | 9.7 | 0.00 | 0.00 | 0.00 | 67 | 1013.2 |
| 20260508095520 | 8 | 194 | 4.8 | 9.7 | 0.00 | 0.00 | 0.00 | 68 | 1013.1 |
| 20260508095019 | 8 | 238 | 3.2 | 11.3 | 0.00 | 0.00 | 0.00 | 69 | 1013.1 |
| 20260508094542 | 8 | 184 | 4.8 | 11.3 | 0.00 | 0.00 | 0.00 | 69 | 1013.1 |
| 20260508094023 | 8 | 198 | 3.2 | 9.7 | 0.00 | 0.00 | 0.00 | 70 | 1013.2 |
| 20260508093521 | 8 | 183 | 3.2 | 12.9 | 0.00 | 0.00 | 0.00 | 71 | 1013.2 |
| 20260508093040 | 9 | 207 | 3.2 | 12.9 | 0.00 | 0.00 | 0.00 | 72 | 1013.3 |
| 20260508092519 | 9 | 214 | 3.2 | 8.0 | 0.00 | 0.00 | 0.00 | 71 | 1013.4 |
| 20260508092019 | 9 | 221 | 3.2 | 8.0 | 0.00 | 0.00 | 0.00 | 71 | 1013.5 |
| 20260508091543 | 9 | 0 | 1.6 | 6.4 | 0.00 | 0.00 | 0.00 | 71 | 1013.6 |
| 20260508091022 | 9 | 0 | 1.6 | 8.0 | 0.00 | 0.00 | 0.00 | 71 | 1013.6 |
| 20260508090520 | 9 | 248 | 3.2 | 8.0 | 0.00 | 0.00 | 0.00 | 71 | 1013.8 |
| 20260508090041 | 9 | 257 | 3.2 | 6.4 | 0.00 | 0.00 | 0.00 | 69 | 1013.7 |
| 20260508085519 | 9 | 250 | 1.6 | 6.4 | 0.00 | 0.00 | 0.00 | 69 | 1013.6 |
| 20260508085020 | 9 | 209 | 1.6 | 6.4 | 0.00 | 0.00 | 0.00 | 68 | 1013.6 |
| 20260508084538 | 9 | 215 | 1.6 | 6.4 | 0.00 | 0.00 | 0.00 | 68 | 1013.5 |
| 20260508084021 | 9 | 246 | 1.6 | 6.4 | 0.00 | 0.00 | 0.00 | 67 | 1013.5 |
| 20260508083519 | 9 | 202 | 1.6 | 6.4 | 0.00 | 0.00 | 0.00 | 67 | 1013.4 |
| 20260508083043 | 9 | 215 | 1.6 | 6.4 | 0.00 | 0.00 | 0.00 | 67 | 1013.4 |
| 20260508082519 | 9 | 251 | 1.6 | 8.0 | 0.00 | 0.00 | 0.00 | 67 | 1013.4 |
| 20260508082020 | 9 | 245 | 3.2 | 8.0 | 0.00 | 0.00 | 0.00 | 67 | 1013.4 |
| 20260508081538 | 9 | 229 | 3.2 | 8.0 | 0.00 | 0.00 | 0.00 | 67 | 1013.3 |
| 20260508081017 | 9 | 236 | 3.2 | 6.4 | 0.00 | 0.00 | 0.00 | 66 | 1013.3 |
| 20260508080520 | 9 | 250 | 3.2 | 11.3 | 0.00 | 0.00 | 0.00 | 67 | 1013.4 |
| 20260508080052 | 9 | 242 | 3.2 | 11.3 | 0.00 | 0.00 | 0.00 | 66 | 1013.4 |
| 20260508075520 | 9 | 234 | 3.2 | 11.3 | 0.00 | 0.00 | 0.00 | 66 | 1013.3 |
| 20260508075020 | 9 | 231 | 1.6 | 11.3 | 0.00 | 0.00 | 0.00 | 66 | 1013.3 |
| 20260508074541 | 9 | 240 | 1.6 | 11.3 | 0.00 | 0.00 | 0.00 | 66 | 1013.2 |
| 20260508074020 | 9 | 209 | 3.2 | 9.7 | 0.00 | 0.00 | 0.00 | 65 | 1013.3 |
| 20260508073520 | 10 | 207 | 4.8 | 8.0 | 0.00 | 0.00 | 0.00 | 65 | 1013.4 |
| 20260508073049 | 9 | 229 | 3.2 | 8.0 | 0.00 | 0.00 | 0.00 | 65 | 1013.3 |
| 20260508072520 | 9 | 233 | 1.6 | 9.7 | 0.00 | 0.00 | 0.00 | 65 | 1013.3 |
| 20260508072020 | 9 | 251 | 3.2 | 9.7 | 0.00 | 0.00 | 0.00 | 64 | 1013.4 |
| 20260508071533 | 9 | 205 | 3.2 | 6.4 | 0.00 | 0.00 | 0.00 | 64 | 1013.4 |
| 20260508071018 | 9 | 217 | 3.2 | 6.4 | 0.00 | 0.00 | 0.00 | 70 | 1013.4 |
| 20260508070520 | 9 | 211 | 1.6 | 11.3 | 0.00 | 0.00 | 0.00 | 64 | 1013.4 |
| 20260508070043 | 9 | 225 | 3.2 | 11.3 | 0.00 | 0.00 | 0.00 | 64 | 1013.3 |
| 20260508065519 | 9 | 174 | 3.2 | 9.7 | 0.00 | 0.00 | 0.00 | 64 | 1013.4 |
| 20260508065021 | 9 | 205 | 1.6 | 11.3 | 0.00 | 0.00 | 0.00 | 64 | 1013.5 |
| 20260508064545 | 9 | 207 | 3.2 | 11.3 | 0.00 | 0.00 | 0.00 | 64 | 1013.5 |
| 20260508064018 | 9 | 247 | 3.2 | 12.9 | 0.00 | 0.00 | 0.00 | 64 | 1013.6 |
| 20260508063520 | 9 | 0 | 3.2 | 12.9 | 0.00 | 0.00 | 0.00 | 64 | 1013.7 |
| 20260508063037 | 9 | 207 | 4.8 | 12.9 | 0.00 | 0.00 | 0.00 | 64 | 1013.7 |
| 20260508062523 | 9 | 217 | 3.2 | 11.3 | 0.00 | 0.00 | 0.00 | 64 | 1013.8 |
| 20260508062020 | 9 | 212 | 3.2 | 9.7 | 0.00 | 0.00 | 0.00 | 64 | 1013.8 |
| 20260508061537 | 9 | 265 | 3.2 | 11.3 | 0.00 | 0.00 | 0.00 | 64 | 1013.8 |
| 20260508061019 | 9 | 230 | 3.2 | 14.5 | 0.00 | 0.00 | 0.00 | 63 | 1013.8 |
| 20260508060521 | 9 | 211 | 4.8 | 14.5 | 0.00 | 0.00 | 0.00 | 63 | 1013.8 |
| 20260508060035 | 9 | 211 | 1.6 | 9.7 | 0.00 | 0.00 | 0.00 | 64 | 1013.9 |
| 20260508055518 | 9 | 0 | 3.2 | 9.7 | 0.00 | 0.00 | 0.00 | 64 | 1013.9 |
| 20260508055020 | 9 | 242 | 3.2 | 9.7 | 0.00 | 0.00 | 0.00 | 64 | 1013.9 |
| 20260508054546 | 9 | 223 | 1.6 | 9.7 | 0.00 | 0.00 | 0.00 | 64 | 1014.0 |
| 20260508054018 | 9 | 251 | 3.2 | 9.7 | 0.00 | 0.00 | 0.00 | 63 | 1013.9 |
| 20260508053517 | 10 | 218 | 1.6 | 8.0 | 0.00 | 0.00 | 0.00 | 63 | 1013.9 |
| 20260508053050 | 10 | 182 | 4.8 | 8.0 | 0.00 | 0.00 | 0.00 | 63 | 1013.8 |
| 20260508052521 | 10 | 226 | 3.2 | 8.0 | 0.00 | 0.00 | 0.00 | 63 | 1013.9 |
| 20260508052019 | 10 | 227 | 1.6 | 9.7 | 0.00 | 0.00 | 0.00 | 63 | 1013.9 |
| 20260508051537 | 10 | 0 | 3.2 | 9.7 | 0.00 | 0.00 | 0.00 | 63 | 1014.0 |
| 20260508051020 | 10 | 211 | 4.8 | 9.7 | 0.00 | 0.00 | 0.00 | 62 | 1014.0 |
| 20260508050520 | 10 | 217 | 3.2 | 9.7 | 0.00 | 0.00 | 0.00 | 63 | 1014.1 |
| 20260508050051 | 10 | 247 | 3.2 | 11.3 | 0.00 | 0.00 | 0.00 | 63 | 1014.0 |
| 20260508045519 | 10 | 228 | 1.6 | 11.3 | 0.00 | 0.00 | 0.00 | 63 | 1014.0 |
| 20260508045020 | 10 | 238 | 3.2 | 8.0 | 0.00 | 0.00 | 0.00 | 63 | 1014.0 |
| 20260508044542 | 10 | 234 | 3.2 | 14.5 | 0.00 | 0.00 | 0.00 | 63 | 1014.0 |
| 20260508044021 | 10 | 194 | 3.2 | 14.5 | 0.00 | 0.00 | 0.00 | 63 | 1013.9 |